Location: Crescent
(42.8242°N, 73.7329°W)
Time: 17:59:29
(UTC+00:00)

Vanguard 1 Rocket - Pass Details

Date: 25 February 2026
Orbit: 653 x 4214 km, 34.3° (Epoch: 8 March)

Event Time Altitude Azimuth Distance (km) Brightness Sun altitude
Rises 20:02:39 0° 269° (W) 4,470 11.7 24.8°
Reaches altitude 10° 20:05:07 10° 264° (W) 3,812 11.6 24.5°
Maximum altitude 20:15:18 52° 191° (S) 2,861 10.8 23.0°
Drops below altitude 10° 20:34:24 10° 123° (ESE) 6,802 11.7 20.2°
Sets 20:40:45 0° 120° (ESE) 8,170 12.0 19.2°
